DateTimeUTC,F1_A11,F1_S11,BsB_S11,BsG_S11,BsR_S11,BbsB_S11,BbsG_S11,BbsR_S11,BaB_A11,BaG_A11,BaR_A11,Tu_S11,T_S11,Uu_S11,U_S11,P_S11,T1_A11
2021-07-03T16:00:00Z,00000200,20000000,,,,,,,-000.25,-000.09,-000.21,19.1,25.5,09.6,06.5,0672.6,31.1
2021-07-03T16:01:00Z,00000200,20000000,,,,,,,0000.12,-000.28,0000.18,19.1,25.6,09.7,06.5,0672.6,31.1
2021-07-03T16:02:00Z,00000200,20000000,,,,,,,-000.18,0000.18,-000.17,19.0,25.6,09.7,06.5,0672.6,31.1
2021-07-03T16:03:00Z,00000200,60000000,,,,,,,0000.48,-000.01,0000.30,19.0,25.6,09.7,06.5,0672.5,31.1
2021-07-03T16:04:00Z,00000200,40000000,0000.85,0000.66,0000.64,0000.05,-000.24,0000.47,-000.24,0000.22,0000.10,19.1,25.4,09.9,06.7,0673.4,31.1
2021-07-03T16:05:00Z,00000200,00000000,0001.58,0000.49,0000.25,0000.32,0000.02,0000.09,0000.47,0000.21,0000.38,19.2,25.4,10.0,06.8,0673.6,31.1
2021-07-03T16:06:00Z,00000200,00000000,0000.95,0000.36,0000.15,-000.74,0000.29,-000.06,-000.08,-000.26,-000.35,19.2,25.3,09.9,06.8,0673.4,31.1
2021-07-03T16:07:00Z,00000200,00000000,0000.64,0000.72,0000.34,-000.07,0000.09,0000.20,0000.25,0000.30,0000.40,19.2,25.3,10.0,06.8,0673.5,31.1
2021-07-03T16:08:00Z,00000200,00000000,0001.01,0000.61,0000.08,0000.14,0000.27,0000.00,0000.01,0000.15,-000.03,19.2,25.4,10.0,06.9,0673.5,31.1
2021-07-03T16:09:00Z,00000200,00000000,0001.23,0000.75,0000.15,0000.47,0000.10,0000.10,0000.01,-000.08,-000.07,19.3,25.4,10.1,07.0,0673.4,31.1
2021-07-03T16:10:00Z,00000200,00000000,0001.50,0000.63,0000.03,-000.09,0000.05,-000.21,0000.17,0000.03,0000.10,19.3,25.4,10.2,07.0,0673.5,31.1
2021-07-03T16:11:00Z,00000200,00000000,0001.96,0000.50,0000.06,0000.12,0000.11,0000.29,-000.15,0000.20,0000.21,19.3,25.4,10.1,07.0,0673.4,31.2
2021-07-03T16:12:00Z,00000200,00000000,0001.35,0000.52,0000.30,0000.62,0000.22,0000.43,0000.34,0000.33,-000.08,19.3,25.4,09.9,06.8,0673.5,31.2
2021-07-03T16:13:00Z,00000200,00000000,0001.22,0000.71,0000.16,0000.04,-000.17,0000.13,0000.05,-000.23,0000.26,19.3,25.4,10.0,06.9,0673.4,31.2
2021-07-03T16:14:00Z,00000200,00000000,0000.80,0000.52,0000.43,0000.43,0000.02,-000.17,0000.09,0000.57,0000.26,19.3,25.4,10.0,06.9,0673.5,31.2
2021-07-03T16:15:00Z,00000200,00000000,0000.33,0000.61,0000.03,-000.20,-000.02,0000.03,0000.27,0000.00,-000.19,19.3,25.4,10.1,06.9,0673.5,31.2
2021-07-03T16:16:00Z,00000200,00000000,0001.22,0000.68,0000.22,0000.25,-000.06,0000.42,0000.13,0000.10,0000.26,19.3,25.4,10.0,06.9,0673.5,31.1
2021-07-03T16:17:00Z,00000200,00000000,0000.95,0000.41,0000.27,0000.39,-000.11,-000.06,0000.12,-000.13,0000.08,19.3,25.4,10.2,07.1,0673.7,31.1
2021-07-03T16:18:00Z,00000200,00000000,0000.94,0000.83,0000.75,0000.07,0000.17,0000.04,0000.13,0000.26,-000.21,19.3,25.4,10.2,07.0,0673.6,31.1
2021-07-03T16:19:00Z,00000200,00000000,0001.02,0000.63,0000.16,-000.14,0000.11,0000.16,-000.19,0000.33,0000.45,19.3,25.4,10.0,06.9,0673.5,31.1
2021-07-03T16:20:00Z,00000200,00000000,0001.35,0000.71,0000.63,0000.40,0000.31,0000.16,-000.08,-000.47,-000.30,19.3,25.4,10.1,07.0,0673.5,31.1
2021-07-03T16:21:00Z,00000200,00000000,0001.93,0000.41,0000.23,0000.21,0000.18,0000.32,0000.31,0000.50,0000.23,19.3,25.4,10.1,07.0,0673.5,31.1
2021-07-03T16:22:00Z,00000200,00000000,0001.40,0000.71,0000.08,0000.08,0000.21,0000.20,0000.44,-000.01,0000.28,19.3,25.4,10.2,07.0,0673.5,31.1
2021-07-03T16:23:00Z,00000200,00000000,0000.81,0000.61,0000.30,-000.27,-000.12,0000.25,-000.35,0000.21,-000.28,19.3,25.4,10.2,07.0,0673.5,31.1
2021-07-03T16:24:00Z,00000200,00000000,0001.18,0000.59,0000.20,-000.02,0000.00,-000.18,0000.25,-000.14,0000.15,19.3,25.4,10.2,07.1,0673.5,31.1
2021-07-03T16:25:00Z,00000200,00000000,0000.56,0000.79,0000.35,-000.48,-000.11,0000.32,0000.16,0000.35,-000.04,19.3,25.4,10.3,07.1,0673.5,31.1
2021-07-03T16:26:00Z,00000200,00000000,0001.04,0000.57,0000.41,0000.11,0000.15,0000.15,0000.24,-000.14,0000.52,19.3,25.3,10.3,07.1,0673.5,31.1
2021-07-03T16:27:00Z,00000200,00000000,0000.67,0000.62,0000.10,0000.27,0000.06,-000.06,-000.07,0000.04,-000.17,19.3,25.3,10.3,07.1,0673.6,31.1
2021-07-03T16:28:00Z,00000200,00000000,0001.07,0000.63,0000.28,-000.26,0000.30,0000.38,0000.34,0000.32,0000.43,19.3,25.4,10.5,07.3,0673.5,31.1
2021-07-03T16:29:00Z,00000200,00000000,0001.32,0000.43,0000.24,-000.40,-000.07,0000.38,-000.07,-000.13,0000.09,19.2,25.3,10.5,07.2,0673.6,31.1
2021-07-03T16:30:00Z,00000200,00000000,0000.44,0000.91,0000.28,0000.26,0000.04,-000.03,0000.10,0000.09,-000.04,19.2,25.3,10.5,07.2,0673.5,31.1
2021-07-03T16:31:00Z,00000200,00000000,0000.20,0000.61,0000.18,-000.00,0000.02,0000.11,-000.05,0000.16,-000.36,19.2,25.3,10.4,07.2,0673.5,31.1
2021-07-03T16:32:00Z,00000200,00000000,0000.89,0000.47,0000.10,0000.01,0000.19,-000.26,0000.54,0000.29,0000.72,19.2,25.3,10.5,07.3,0673.5,31.1
2021-07-03T16:33:00Z,00000200,00000000,0000.93,0000.71,0000.40,0000.50,0000.22,0000.72,-000.43,-000.05,-000.15,19.2,25.3,10.6,07.3,0673.6,31.1
2021-07-03T16:34:00Z,00000200,00000000,0000.76,0000.55,-000.02,0000.22,0000.05,-000.13,-000.01,-000.12,-000.14,19.2,25.3,10.6,07.3,0673.4,31.1
2021-07-03T16:35:00Z,00000200,00000000,0001.24,0000.50,0000.36,-000.26,0000.24,0000.26,0000.59,0000.23,0000.29,19.2,25.3,10.5,07.2,0673.5,31.1
2021-07-03T16:36:00Z,00000200,00000000,0001.96,0000.71,-000.13,0000.02,0000.35,-000.08,0000.49,0000.04,0000.13,19.2,25.3,10.8,07.4,0673.5,31.1
2021-07-03T16:37:00Z,00000200,00000000,0001.53,0000.70,0000.33,0000.80,0000.10,0000.12,-000.58,0000.17,0000.02,19.2,25.3,10.5,07.3,0673.4,31.1
2021-07-03T16:38:00Z,00000200,00000000,0001.04,0000.59,0000.49,-000.02,0000.20,0000.31,0000.15,-000.05,-000.13,19.2,25.3,10.7,07.4,0673.4,31.1
2021-07-03T16:39:00Z,00000200,00000000,0000.37,0000.32,0000.25,-000.12,0000.07,0000.00,0000.40,0000.18,0000.31,19.2,25.3,10.7,07.3,0673.5,31.1
2021-07-03T16:40:00Z,00000200,00000000,0000.73,0000.75,0000.41,0000.20,0000.21,0000.19,-000.26,-000.18,0000.04,19.2,25.3,10.8,07.5,0673.5,31.1
2021-07-03T16:41:00Z,00000200,00000000,0000.22,0000.52,0000.20,0000.04,0000.08,0000.02,0000.04,0000.37,-000.13,19.2,25.3,10.5,07.3,0673.4,31.1
2021-07-03T16:42:00Z,00000200,00000000,0001.36,0000.46,0000.37,0000.01,0000.21,0000.20,0000.29,0000.10,0000.39,19.2,25.3,10.6,07.3,0673.5,31.1
2021-07-03T16:43:00Z,00000200,00000000,0001.00,0000.86,0000.26,-000.09,-000.04,-000.07,-000.27,-000.10,-000.15,19.2,25.3,10.7,07.4,0673.4,31.1
2021-07-03T16:44:00Z,00000200,00000000,0000.92,0000.49,0000.18,0000.11,0000.38,0000.38,0000.68,0000.25,0000.25,19.2,25.3,10.8,07.4,0673.6,31.1
2021-07-03T16:45:00Z,00000200,00000000,0000.81,0000.55,0000.29,0000.26,0000.09,0000.30,-000.55,-000.00,-000.17,19.2,25.3,10.8,07.4,0673.4,31.1
2021-07-03T16:46:00Z,00000200,00000000,0000.68,0000.70,0000.06,0000.49,0000.17,0000.48,0000.52,0000.30,0000.31,19.2,25.2,10.6,07.3,0673.4,31.1
2021-07-03T16:47:00Z,00000200,00000000,0000.94,0000.76,0000.62,0000.20,0000.17,0000.22,-000.04,0000.17,0000.20,19.2,25.2,10.7,07.4,0673.4,31.1
2021-07-03T16:48:00Z,00000200,00000000,0001.08,0000.86,0000.33,0000.20,0000.08,0000.26,-000.28,-000.26,-000.51,19.2,25.2,10.6,07.3,0673.3,31.1
2021-07-03T16:49:00Z,00000200,00000000,0001.16,0000.59,0000.41,-000.23,-000.07,0000.33,0000.47,0000.61,0000.30,19.1,25.2,10.5,07.3,0673.3,31.1
2021-07-03T16:50:00Z,00000200,00000000,0000.79,0000.33,0000.23,0000.06,0000.11,0000.30,-000.10,-000.44,0000.02,19.1,25.2,10.7,07.4,0673.3,31.1
2021-07-03T16:51:00Z,00000200,00000000,0000.85,0000.51,0000.32,-000.28,0000.16,-000.12,0000.11,0000.18,0000.12,19.1,25.2,10.7,07.4,0673.3,31.1
2021-07-03T16:52:00Z,00000200,00000000,0000.81,0000.63,0000.35,-000.12,0000.18,0000.21,0000.01,-000.12,-000.00,19.1,25.2,10.6,07.3,0673.1,31.1
2021-07-03T16:53:00Z,00000200,00000000,0000.88,0000.50,0000.33,0000.23,0000.17,0000.25,0000.12,0000.24,0000.14,19.2,25.3,10.6,07.3,0673.2,31.1
2021-07-03T16:54:00Z,00000200,00000000,0000.93,0000.70,0000.02,-000.07,-000.10,0000.07,0000.20,0000.25,0000.05,19.3,25.3,10.5,07.3,0673.2,31.2
2021-07-03T16:55:00Z,00000200,00000000,0001.08,0000.47,0000.52,-000.15,-000.16,0000.23,0000.06,-000.32,0000.08,19.4,25.4,10.5,07.3,0673.2,31.2
2021-07-03T16:56:00Z,00000200,00000000,0001.59,0000.39,0000.37,-000.19,0000.08,-000.00,0000.09,0000.21,0000.05,19.4,25.4,10.6,07.4,0673.2,31.2
2021-07-03T16:57:00Z,00000200,40000000,,,,,,,-000.15,0000.18,0000.28,19.5,25.5,10.4,07.2,0673.2,31.2
2021-07-03T16:58:00Z,00000200,60000000,,,,,,,-000.05,-000.01,-000.05,19.3,25.6,10.3,07.0,0672.2,31.2
2021-07-03T16:59:00Z,00000200,20000000,,,,,,,0000.10,0000.08,-000.14,19.3,25.7,10.3,07.0,0672.3,31.2
